Location: Baumgarten
(49.0970°N, 12.7493°E)
Time: 17:43:25
(UTC+00:00)

Cosmos 2344 - Pass Details

Date: 05 July 2020
Orbit: 1249 x 2993 km, 63.3° (Epoch: 12 August)

Event Time Altitude Azimuth Distance (km) Brightness Sun altitude
Exits shadow 22:16:00 15° 204° (SSW) 2,869 5.0 -17.1°
Maximum altitude 22:22:19 68° 125° (SE) 1,356 3.5 -17.3°
Drops below altitude 10° 22:30:19 10° 45° (NE) 3,514 6.4 -17.6°
Sets 22:33:28 0° 43° (NE) 4,654 7.1 -17.7°
